Location: Poprad
(49.0500°N, 20.3000°E)
Time: 20:40:57
(UTC+02:00)

RS-44 - Pass Details

Date: 22 April 2024
Orbit: 1175 x 1510 km, 82.5° (Epoch: 21 May)

Event Time Altitude Azimuth Distance (km) Brightness Sun altitude
Rises 22:16:12 0° 234° (SW) 4,621 ? -21.0°
Reaches altitude 10° 22:19:51 10° 247° (WSW) 3,618 ? -21.3°
Maximum altitude 22:26:45 26° 300° (WNW) 2,549 ? -22.0°
Drops below altitude 10° 22:33:25 10° 354° (N) 3,462 ? -22.6°
Sets 22:36:51 0° 7° (N) 4,385 ? -22.9°
